Regional Weather Roundup
Issued by NWS Kansas City/Pleasant Hill, MO

Home | Current Version | Previous Version | Text Only | Print | Product List | Glossary On
Versions: 1 2 3 4 5 6 7 8 9 10 11 12 13 14 15 16 17 18 19 20 21 22 23 24 25 26 27
000
ASUS43 KEAX 100610
RWREAX

WEATHER ROUNDUP FOR EASTERN KANSAS AND NORTHWEST MISSOURI
NATIONAL WEATHER SERVICE KANSAS CITY/PLEASANT HILL MO
1200 AM CST SAT DEC 10 2016

KSZ040-057-103>105-MOZ028-029-037-043-100700-
...KANSAS CITY METROPOLITAN AREA...

CITY           SKY/WX    TMP DP  RH WIND       PRES   REMARKS
K.C. INTL      CLOUDY    27  11  51 SE7       30.49F WCI  19
6HR MIN TEMP:  26; 6HR MAX TEMP:  27;

K.C. DOWNTOWN  CLOUDY    28  11  48 SE6       30.51F WCI  22
6HR MIN TEMP:  28; 6HR MAX TEMP:  29;

LEES SUMMIT    CLOUDY    26  13  57 E6        30.50F WCI  19
6HR MIN TEMP:  26; 6HR MAX TEMP:  27;

OLATHE - IXD   CLOUDY    26  15  63 SE6       30.49F WCI  19
6HR MIN TEMP:  26; 6HR MAX TEMP:  26;

OLATHE - OJC   CLOUDY    25  13  60 SE5       30.49F WCI  19
6HR MIN TEMP:  25; 6HR MAX TEMP:  25;

LAWRENCE       CLOUDY    27  19  72 E5        30.51S WCI  22

$$

MOZ001>008-011>017-020>025-030>033-038>040-044>046-053-054-100700-
...NORTHERN AND CENTRAL MISSOURI...

CITY           SKY/WX    TMP DP  RH WIND       PRES   REMARKS
ST. JOSEPH     CLOUDY    26  13  57 SE5       30.51S WCI  20
6HR MIN TEMP:  26; 6HR MAX TEMP:  26;

MOSBY          CLOUDY    28  12  50 SE5       30.52S WCI  23
WARRENSBURG    CLOUDY    27  12  54 E6        30.54S WCI  20
WHITEMAN AFB   CLOUDY    26  13  58 E5        30.52S WCI  20
6HR MIN TEMP:  26; 6HR MAX TEMP:  26;

CLINTON        CLOUDY    27  16  63 CALM      30.53S
SEDALIA        CLOUDY    26  12  55 E7        30.54F WCI  18
6HR MIN TEMP:  26; 6HR MAX TEMP:  27;

WARSAW         NOT AVBL
CHILLICOTHE      N/A     25  11  55 CALM      30.54F
6HR MIN TEMP:  25; 6HR MAX TEMP:  26;

KIRKSVILLE     CLOUDY    23  16  74 SE3       30.52F
6HR MIN TEMP:  23; 6HR MAX TEMP:  25;


$$

MOZ041-047>049-056>058-063>065-088>090-097-100700-
...EASTERN AND SOUTHERN MISSOURI...

CITY           SKY/WX    TMP DP  RH WIND       PRES   REMARKS
ST. LOUIS INTL CLOUDY    26  15  63 CALM      30.58S
6HR MIN TEMP:  23; 6HR MAX TEMP:  26;

SPIRIT OF STL  CLOUDY    22  18  85 CALM      30.58F
COLUMBIA       CLOUDY    24  12  60 E3        30.55S
JEFFERSON CITY CLOUDY    25  11  55 CALM      30.58R
ROLLA          CLOUDY    23  11  60 E6        30.52S WCI  16
OSAGE BEACH    CLOUDY    26  14  60 NE6       30.55R WCI  19
SPRINGFIELD    CLOUDY    31  14  49 S12       30.48F WCI  22
BRANSON        CLOUDY    28  16  59 SE6       30.51F WCI  22
JOPLIN         CLOUDY    31  16  54 SE8       30.49F WCI  23
WEST PLAINS    CLEAR     20  14  77 S3        30.53F

$$

IAZ060-094-KSZ022-034>040-054-083-096-NEZ052-066-093-100700-
...KANSAS...SOUTHEAST NEBRASKA AND IOWA...

CITY           SKY/WX    TMP DP  RH WIND       PRES   REMARKS
TOPEKA         CLOUDY    28  16  60 S7        30.49F WCI  21
6HR MIN TEMP:  27; 6HR MAX TEMP:  28;

MANHATTAN      CLOUDY    29  15  56 SE5       30.46F WCI  24
EMPORIA        CLOUDY    22  14  71 SE3       30.47F
CHANUTE        CLOUDY    29  16  58 SE3       30.49S
WICHITA        CLOUDY    22  13  68 SE5       30.44S WCI  16
OMAHA          CLOUDY    23  12  62 SE6       30.50S WCI  16
LINCOLN        CLOUDY    23  15  71 E5        30.47F WCI  17
FALLS CITY     CLOUDY    25  15  66 SE5       30.49S WCI  19
LAMONI         CLOUDY    22  12  65 SE3       30.49F
DES MOINES     CLOUDY    22  12  65 W3        30.52S

$$





USA.gov is the U.S. government's official web portal to all federal, state and local government web resources and services.